Location: Unspecified
(41.5516°N, 88.1098°W)
Time: 11:46:32
(UTC-05:00)

Okean 3 - Visible Passes

Search period start: 25 October 2014 00:00
Search period end: 03 November 2014 23:00
Orbit: 584 x 608 km, 82.5° (Epoch: 24 October)

Date Brightness Start Highest point End Pass type
(mag) Time Alt. Az. Time Alt. Az. Time Alt. Az.
27 Oct 6.7 06:48:42 10° NE 06:49:58 11° ENE 06:51:14 10° E visible
02 Nov 6.5 05:11:11 10° NE 05:13:26 14° ENE 05:15:40 10° ESE visible
03 Nov 6.2 05:20:27 10° NNE 05:23:43 21° ENE 05:26:56 10° ESE visible
